Location: Unspecified
(46.9223°N, 0.0000°E)
Time: 06:55:52
(UTC+00:00)

Explorer 7 - Visible Passes

Search period start: 04 April 2026 00:00
Search period end: 14 April 2026 00:00
Orbit: 429 x 539 km, 50.2° (Epoch: 29 March)

Date Brightness Start Highest point End Pass type
(mag) Time Alt. Az. Time Alt. Az. Time Alt. Az.
4 Apr 9.0 20:17:06 10° S 20:17:34 12° S 20:17:34 12° S visible
5 Apr 8.0 19:50:08 10° S 19:53:11 21° SE 19:53:13 21° SE visible
5 Apr 9.3 21:27:10 10° WSW 21:27:34 13° WSW 21:27:34 13° WSW visible
6 Apr 8.1 19:23:08 10° S 19:26:06 20° SE 19:28:30 12° E visible
6 Apr 7.5 21:00:03 10° WSW 21:02:50 43° SW 21:02:50 43° SW visible
7 Apr 6.5 20:32:54 10° WSW 20:36:56 75° SSE 20:37:45 53° E visible
7 Apr 9.5 22:11:34 10° W 22:12:04 13° W 22:12:04 13° W visible
8 Apr 6.6 20:05:44 10° WSW 20:09:45 72° SSE 20:12:21 21° ENE visible
8 Apr 8.4 21:44:22 10° W 21:46:39 30° WNW 21:46:39 30° WNW visible
9 Apr 6.7 19:38:32 10° SW 19:42:34 69° SSE 19:46:31 10° ENE visible
9 Apr 7.3 21:17:07 10° W 21:20:59 54° NNW 21:20:59 54° NNW visible
10 Apr 6.8 19:11:19 10° SW 19:15:20 65° SSE 19:19:18 10° ENE visible
10 Apr 7.3 20:49:52 10° W 20:53:50 55° N 20:55:08 36° NE visible
10 Apr 9.4 22:28:37 10° WNW 22:29:24 15° WNW 22:29:24 15° WNW visible
11 Apr 7.3 20:22:34 10° W 20:26:33 56° N 20:29:08 20° ENE visible
11 Apr 8.6 22:01:20 10° WNW 22:03:23 28° WNW 22:03:23 28° WNW visible
12 Apr 7.3 19:55:15 10° W 19:59:15 57° N 20:03:01 11° ENE visible
12 Apr 7.6 21:34:01 10° WNW 21:37:17 48° NNW 21:37:17 48° NNW visible
13 Apr 7.3 19:27:54 10° W 19:31:56 58° N 19:35:52 10° ENE visible
13 Apr 7.1 21:06:41 10° WNW 21:10:39 56° N 21:11:05 53° NE visible
13 Apr 9.7 22:45:11 10° WNW 22:45:20 11° WNW 22:45:20 11° WNW visible
